Time,TemperatureF,DewpointF,PressureIn,WindDirection,WindDirectionDegrees,WindSpeedMPH,WindSpeedGustMPH,Humidity,HourlyPrecipIn,Conditions,Clouds,dailyrainin,SoftwareType,DateUTC
2013-09-20 00:00:00,64.1,63.8,29.58,West,261,2.0,2.0,99,0.00,,---,0.00,VWS V14.01,2013-09-20 05:00:00,
2013-09-20 00:05:00,64.1,63.8,29.58,West,267,0.0,3.0,99,0.00,,---,0.00,VWS V14.01,2013-09-20 05:05:00,
2013-09-20 00:10:00,64.2,63.9,29.58,West,269,0.0,4.0,99,0.00,,---,0.00,VWS V14.01,2013-09-20 05:10:00,
2013-09-20 00:15:00,64.2,63.9,29.59,West,263,0.0,4.0,99,0.00,,---,0.00,VWS V14.01,2013-09-20 05:15:00,
2013-09-20 00:20:00,64.3,64.0,29.59,West,263,0.0,4.0,99,0.00,,---,0.00,VWS V14.01,2013-09-20 05:20:00,
2013-09-20 00:25:00,64.3,64.0,29.59,ESE,120,2.0,4.0,99,0.00,,---,0.00,VWS V14.01,2013-09-20 05:25:00,
2013-09-20 00:30:00,64.2,63.9,29.58,West,272,0.0,1.0,99,0.00,,---,0.00,VWS V14.01,2013-09-20 05:30:00,
2013-09-20 00:36:00,64.2,63.9,29.58,WSW,254,0.0,2.0,99,0.00,,---,0.00,VWS V14.01,2013-09-20 05:36:00,
2013-09-20 00:41:00,64.2,63.9,29.58,SSE,150,0.0,3.0,99,0.00,,---,0.00,VWS V14.01,2013-09-20 05:41:00,
2013-09-20 00:46:00,64.2,63.9,29.58,South,175,0.0,3.0,99,0.00,,---,0.00,VWS V14.01,2013-09-20 05:46:00,
2013-09-20 00:51:00,64.1,63.8,29.58,West,277,2.0,4.0,99,0.00,,---,0.00,VWS V14.01,2013-09-20 05:51:00,
2013-09-20 00:56:00,64.1,63.8,29.58,West,276,0.0,4.0,99,0.00,,---,0.00,VWS V14.01,2013-09-20 05:56:00,
2013-09-20 01:00:00,64.1,63.8,29.57,West,270,0.0,5.0,99,0.00,,---,0.00,VWS V14.01,2013-09-20 06:00:00,
2013-09-20 01:01:00,64.1,63.8,29.57,West,276,0.0,2.0,99,0.00,,---,0.00,VWS V14.01,2013-09-20 06:01:00,
2013-09-20 01:06:00,64.1,63.8,29.57,West,275,0.0,2.0,99,0.00,,---,0.00,VWS V14.01,2013-09-20 06:06:00,
2013-09-20 01:11:00,64.1,63.8,29.57,WNW,294,0.0,2.0,99,0.00,,---,0.00,VWS V14.01,2013-09-20 06:11:00,
2013-09-20 01:16:00,64.1,63.8,29.57,WNW,294,0.0,2.0,99,0.00,,---,0.00,VWS V14.01,2013-09-20 06:16:00,
2013-09-20 01:21:00,64.0,63.7,29.57,West,274,1.0,2.0,99,0.00,,---,0.00,VWS V14.01,2013-09-20 06:21:00,
2013-09-20 01:26:00,64.0,63.7,29.57,West,275,0.0,2.0,99,0.00,,---,0.00,VWS V14.01,2013-09-20 06:26:00,
2013-09-20 01:30:00,64.0,63.7,29.58,WNW,292,0.0,2.0,99,0.00,,---,0.00,VWS V14.01,2013-09-20 06:30:00,
2013-09-20 01:31:00,64.0,63.7,29.58,West,275,0.0,0.0,99,0.00,,---,0.00,VWS V14.01,2013-09-20 06:31:00,
2013-09-20 01:36:00,64.0,63.7,29.58,West,275,0.0,0.0,99,0.00,,---,0.00,VWS V14.01,2013-09-20 06:36:00,
2013-09-20 01:41:00,64.0,63.7,29.58,West,275,0.0,0.0,99,0.00,,---,0.00,VWS V14.01,2013-09-20 06:41:00,
2013-09-20 01:46:00,64.0,63.7,29.58,West,274,0.0,0.0,99,0.00,,---,0.00,VWS V14.01,2013-09-20 06:46:00,
2013-09-20 01:51:00,64.0,63.7,29.58,West,275,1.0,1.0,99,0.00,,---,0.00,VWS V14.01,2013-09-20 06:51:00,
2013-09-20 01:56:00,64.0,63.7,29.58,West,271,0.0,1.0,99,0.00,,---,0.00,VWS V14.01,2013-09-20 06:56:00,
2013-09-20 02:00:00,64.0,63.7,29.58,West,270,0.0,1.0,99,0.00,,---,0.00,VWS V14.01,2013-09-20 07:00:00,
2013-09-20 02:01:00,64.0,63.7,29.58,West,271,0.0,0.0,99,0.00,,---,0.00,VWS V14.01,2013-09-20 07:01:00,
2013-09-20 02:06:00,64.0,63.7,29.58,West,271,0.0,0.0,99,0.00,,---,0.00,VWS V14.01,2013-09-20 07:06:00,
2013-09-20 02:11:00,64.0,63.7,29.58,West,269,1.0,1.0,99,0.00,,---,0.00,VWS V14.01,2013-09-20 07:11:00,
2013-09-20 02:16:00,64.0,63.7,29.58,WNW,283,0.0,2.0,99,0.00,,---,0.00,VWS V14.01,2013-09-20 07:16:00,
2013-09-20 02:21:00,64.0,63.7,29.58,West,271,1.0,3.0,99,0.00,,---,0.00,VWS V14.01,2013-09-20 07:21:00,
2013-09-20 02:26:00,64.0,63.7,29.58,West,265,1.0,3.0,99,0.00,,---,0.00,VWS V14.01,2013-09-20 07:26:00,
2013-09-20 02:30:00,64.0,63.7,29.58,West,270,1.0,3.0,99,0.00,,---,0.00,VWS V14.01,2013-09-20 07:30:00,
2013-09-20 02:31:00,64.0,63.7,29.58,West,267,0.0,2.0,99,0.00,,---,0.00,VWS V14.01,2013-09-20 07:31:00,
2013-09-20 02:37:00,64.0,63.7,29.58,West,280,1.0,3.0,99,0.00,,---,0.00,VWS V14.01,2013-09-20 07:37:00,
2013-09-20 02:42:00,64.0,63.7,29.58,West,276,1.0,3.0,99,0.00,,---,0.00,VWS V14.01,2013-09-20 07:42:00,
2013-09-20 02:47:00,64.0,63.7,29.58,West,272,0.0,3.0,99,0.00,,---,0.00,VWS V14.01,2013-09-20 07:47:00,
2013-09-20 02:52:00,64.0,63.7,29.58,West,277,2.0,3.0,99,0.00,,---,0.00,VWS V14.01,2013-09-20 07:52:00,
2013-09-20 02:57:00,64.0,63.7,29.58,West,263,1.0,3.0,99,0.00,,---,0.00,VWS V14.01,2013-09-20 07:57:00,
2013-09-20 03:02:00,63.9,63.6,29.58,West,269,0.0,1.0,99,0.00,,---,0.00,VWS V14.01,2013-09-20 08:02:00,
2013-09-20 03:07:00,63.9,63.6,29.58,West,280,0.0,1.0,99,0.00,,---,0.00,VWS V14.01,2013-09-20 08:07:00,
2013-09-20 03:12:00,64.0,63.7,29.58,West,281,0.0,2.0,99,0.00,,---,0.00,VWS V14.01,2013-09-20 08:12:00,
2013-09-20 03:17:00,63.9,63.6,29.57,WNW,295,0.0,2.0,99,0.00,,---,0.00,VWS V14.01,2013-09-20 08:17:00,
2013-09-20 03:22:00,63.9,63.6,29.57,WNW,295,0.0,2.0,99,0.00,,---,0.00,VWS V14.01,2013-09-20 08:22:00,
2013-09-20 03:27:00,63.9,63.6,29.57,WNW,290,0.0,2.0,99,0.00,,---,0.00,VWS V14.01,2013-09-20 08:27:00,
2013-09-20 03:30:00,64.0,63.7,29.57,West,270,0.0,2.0,99,0.00,,---,0.00,VWS V14.01,2013-09-20 08:30:00,
2013-09-20 03:32:00,64.0,63.7,29.57,WNW,288,0.0,1.0,99,0.00,,---,0.00,VWS V14.01,2013-09-20 08:32:00,
2013-09-20 03:38:00,63.9,63.6,29.57,West,268,0.0,1.0,99,0.00,,---,0.00,VWS V14.01,2013-09-20 08:38:00,
2013-09-20 03:43:00,64.0,63.7,29.57,West,268,0.0,1.0,99,0.00,,---,0.00,VWS V14.01,2013-09-20 08:43:00,
2013-09-20 03:48:00,63.9,63.6,29.57,West,267,0.0,1.0,99,0.00,,---,0.00,VWS V14.01,2013-09-20 08:48:00,
2013-09-20 03:53:00,64.0,63.7,29.57,West,267,0.0,1.0,99,0.00,,---,0.00,VWS V14.01,2013-09-20 08:53:00,
2013-09-20 03:58:00,63.9,63.6,29.57,WNW,293,0.0,1.0,99,0.00,,---,0.00,VWS V14.01,2013-09-20 08:58:00,
2013-09-20 04:03:00,63.9,63.6,29.57,WNW,292,0.0,1.0,99,0.00,,---,0.00,VWS V14.01,2013-09-20 09:03:00,
2013-09-20 04:08:00,63.9,63.9,29.57,WNW,284,1.0,1.0,100,0.00,,---,0.00,VWS V14.01,2013-09-20 09:08:00,
2013-09-20 04:13:00,63.9,63.9,29.57,WNW,284,0.0,1.0,100,0.00,,---,0.00,VWS V14.01,2013-09-20 09:13:00,
2013-09-20 04:18:00,63.9,63.9,29.57,WNW,284,0.0,1.0,100,0.00,,---,0.00,VWS V14.01,2013-09-20 09:18:00,
2013-09-20 04:23:00,63.9,63.9,29.57,WNW,284,1.0,1.0,100,0.00,,---,0.00,VWS V14.01,2013-09-20 09:23:00,
2013-09-20 04:28:00,63.9,63.9,29.57,West,281,0.0,1.0,100,0.00,,---,0.00,VWS V14.01,2013-09-20 09:28:00,
2013-09-20 04:33:00,63.9,63.9,29.57,West,267,0.0,0.0,100,0.00,,---,0.00,VWS V14.01,2013-09-20 09:33:00,
2013-09-20 04:38:00,63.9,63.9,29.57,WNW,290,0.0,0.0,100,0.00,,---,0.00,VWS V14.01,2013-09-20 09:38:00,
2013-09-20 04:43:00,63.9,63.9,29.57,West,275,0.0,0.0,100,0.00,,---,0.00,VWS V14.01,2013-09-20 09:43:00,
2013-09-20 04:48:00,63.9,63.9,29.57,West,271,0.0,0.0,100,0.00,,---,0.00,VWS V14.01,2013-09-20 09:48:00,
2013-09-20 04:53:00,63.9,63.9,29.57,WSW,256,0.0,0.0,100,0.00,,---,0.00,VWS V14.01,2013-09-20 09:53:00,
2013-09-20 04:58:00,63.9,63.9,29.57,West,267,0.0,0.0,100,0.00,,---,0.00,VWS V14.01,2013-09-20 09:58:00,
2013-09-20 05:00:00,63.9,63.9,29.56,WNW,292,0.0,0.0,100,0.00,,---,0.00,VWS V14.01,2013-09-20 10:00:00,
2013-09-20 05:03:00,63.9,63.9,29.56,West,276,1.0,3.0,100,0.00,,---,0.00,VWS V14.01,2013-09-20 10:03:00,
2013-09-20 05:08:00,63.8,63.8,29.56,West,265,1.0,4.0,100,0.00,,---,0.00,VWS V14.01,2013-09-20 10:08:00,
2013-09-20 05:13:00,63.8,63.8,29.56,West,266,0.0,4.0,100,0.00,,---,0.00,VWS V14.01,2013-09-20 10:13:00,
2013-09-20 05:18:00,63.8,63.8,29.55,West,266,1.0,4.0,100,0.00,,---,0.00,VWS V14.01,2013-09-20 10:18:00,
2013-09-20 05:24:00,63.8,63.8,29.55,West,269,1.0,4.0,100,0.00,,---,0.00,VWS V14.01,2013-09-20 10:24:00,
2013-09-20 05:29:00,63.8,63.8,29.55,West,260,1.0,4.0,100,0.00,,---,0.00,VWS V14.01,2013-09-20 10:29:00,
2013-09-20 05:34:00,63.8,63.8,29.55,West,271,1.0,2.0,100,0.00,,---,0.00,VWS V14.01,2013-09-20 10:34:00,
2013-09-20 05:39:00,63.8,63.8,29.55,West,264,1.0,3.0,100,0.00,,---,0.00,VWS V14.01,2013-09-20 10:39:00,
2013-09-20 05:44:00,63.7,63.7,29.55,WNW,285,2.0,3.0,100,0.00,,---,0.00,VWS V14.01,2013-09-20 10:44:00,
2013-09-20 05:49:00,63.7,63.7,29.55,West,272,1.0,4.0,100,0.00,,---,0.00,VWS V14.01,2013-09-20 10:49:00,
2013-09-20 05:54:00,63.7,63.7,29.55,WSW,250,2.0,4.0,100,0.00,,---,0.00,VWS V14.01,2013-09-20 10:54:00,
2013-09-20 05:59:00,63.6,63.6,29.55,WNW,296,1.0,4.0,100,0.00,,---,0.00,VWS V14.01,2013-09-20 10:59:00,
2013-09-20 06:00:00,63.6,63.6,29.55,West,270,1.0,4.0,100,0.00,,---,0.00,VWS V14.01,2013-09-20 11:00:00,
2013-09-20 06:04:00,63.5,63.5,29.55,West,277,1.0,3.0,100,0.00,,---,0.00,VWS V14.01,2013-09-20 11:04:00,
2013-09-20 06:09:00,63.5,63.5,29.55,West,280,0.0,3.0,100,0.00,,---,0.00,VWS V14.01,2013-09-20 11:09:00,
2013-09-20 06:14:00,63.5,63.5,29.55,West,276,0.0,3.0,100,0.00,,---,0.00,VWS V14.01,2013-09-20 11:14:00,
2013-09-20 06:19:00,63.4,63.4,29.55,West,269,0.0,3.0,100,0.00,,---,0.00,VWS V14.01,2013-09-20 11:19:00,
2013-09-20 06:24:00,63.4,63.4,29.55,WSW,246,0.0,3.0,100,0.00,,---,0.00,VWS V14.01,2013-09-20 11:24:00,
2013-09-20 06:29:00,63.3,63.3,29.55,WSW,252,1.0,3.0,100,0.00,,---,0.00,VWS V14.01,2013-09-20 11:29:00,
2013-09-20 06:30:00,63.3,63.3,29.55,West,270,0.0,3.0,100,0.00,,---,0.00,VWS V14.01,2013-09-20 11:30:00,
2013-09-20 06:34:00,63.2,63.2,29.55,West,268,1.0,4.0,100,0.00,,---,0.00,VWS V14.01,2013-09-20 11:34:00,
2013-09-20 06:39:00,63.1,62.8,29.55,West,271,2.0,4.0,99,0.00,,---,0.00,VWS V14.01,2013-09-20 11:39:00,
2013-09-20 06:44:00,63.1,62.8,29.57,West,265,2.0,5.0,99,0.00,,---,0.00,VWS V14.01,2013-09-20 11:44:00,
2013-09-20 06:49:00,63.0,62.7,29.57,West,279,2.0,5.0,99,0.00,,---,0.00,VWS V14.01,2013-09-20 11:49:00,
2013-09-20 06:54:00,62.9,62.6,29.57,WNW,284,2.0,8.0,99,0.00,,---,0.00,VWS V14.01,2013-09-20 11:54:00,
2013-09-20 06:59:00,62.5,62.2,29.58,WSW,252,3.0,8.0,99,0.00,,---,0.00,VWS V14.01,2013-09-20 11:59:00,
2013-09-20 07:00:00,62.5,62.2,29.58,West,270,2.0,8.0,99,0.00,,---,0.00,VWS V14.01,2013-09-20 12:00:00,
2013-09-20 07:05:00,62.2,61.9,29.58,West,265,5.0,7.0,99,0.00,,---,0.00,VWS V14.01,2013-09-20 12:05:00,
2013-09-20 07:10:00,62.0,61.7,29.58,WSW,239,4.0,13.0,99,0.00,,---,0.00,VWS V14.01,2013-09-20 12:10:00,
2013-09-20 07:15:00,61.7,61.4,29.59,WNW,287,7.0,13.0,99,0.00,,---,0.00,VWS V14.01,2013-09-20 12:15:00,
2013-09-20 07:20:00,61.4,61.1,29.59,West,263,6.0,13.0,99,0.00,,---,0.00,VWS V14.01,2013-09-20 12:20:00,
2013-09-20 07:25:00,61.2,60.9,29.59,West,264,6.0,13.0,99,0.00,,---,0.00,VWS V14.01,2013-09-20 12:25:00,
2013-09-20 07:30:00,61.1,60.8,29.59,WNW,303,2.0,13.0,99,0.00,,---,0.00,VWS V14.01,2013-09-20 12:30:00,
2013-09-20 07:35:00,61.0,60.4,29.59,WSW,258,3.0,10.0,98,0.00,,---,0.00,VWS V14.01,2013-09-20 12:35:00,
2013-09-20 07:40:00,60.9,60.3,29.59,WSW,253,4.0,10.0,98,0.00,,---,0.00,VWS V14.01,2013-09-20 12:40:00,
2013-09-20 07:45:00,60.8,60.2,29.60,WNW,290,5.0,10.0,98,0.00,,---,0.00,VWS V14.01,2013-09-20 12:45:00,
2013-09-20 07:50:00,60.7,60.1,29.60,West,275,3.0,10.0,98,0.00,,---,0.00,VWS V14.01,2013-09-20 12:50:00,
2013-09-20 07:55:00,60.5,59.7,29.60,West,267,1.0,11.0,97,0.00,,---,0.00,VWS V14.01,2013-09-20 12:55:00,
2013-09-20 08:00:00,60.5,59.7,29.59,WNW,293,3.0,3.0,97,0.00,,---,0.00,VWS V14.01,2013-09-20 13:00:00,
2013-09-20 08:05:00,60.4,59.5,29.59,WSW,244,1.0,5.0,97,0.00,,---,0.00,VWS V14.01,2013-09-20 13:05:00,
2013-09-20 08:10:00,60.3,59.5,29.59,West,273,0.0,5.0,97,0.00,,---,0.00,VWS V14.01,2013-09-20 13:10:00,
2013-09-20 08:15:00,60.2,59.3,29.58,West,276,0.0,5.0,97,0.00,,---,0.00,VWS V14.01,2013-09-20 13:15:00,
2013-09-20 08:20:00,60.3,59.7,29.58,West,275,1.0,5.0,98,0.00,,---,0.00,VWS V14.01,2013-09-20 13:20:00,
2013-09-20 08:25:00,60.2,59.6,29.58,West,277,1.0,5.0,98,0.00,,---,0.00,VWS V14.01,2013-09-20 13:25:00,
2013-09-20 08:30:00,60.3,59.7,29.58,WNW,290,3.0,3.0,98,0.00,,---,0.00,VWS V14.01,2013-09-20 13:30:00,
2013-09-20 08:35:00,60.4,59.8,29.58,West,263,0.0,3.0,98,0.00,,---,0.00,VWS V14.01,2013-09-20 13:35:00,
2013-09-20 08:40:00,60.6,60.0,29.58,West,272,0.0,3.0,98,0.00,,---,0.00,VWS V14.01,2013-09-20 13:40:00,
2013-09-20 08:45:00,60.7,60.1,29.58,West,266,0.0,3.0,98,0.00,,---,0.00,VWS V14.01,2013-09-20 13:45:00,
2013-09-20 08:50:00,60.8,60.2,29.58,West,271,0.0,3.0,98,0.00,,---,0.00,VWS V14.01,2013-09-20 13:50:00,
2013-09-20 08:56:00,60.8,60.2,29.58,WSW,245,0.0,3.0,98,0.00,,---,0.00,VWS V14.01,2013-09-20 13:56:00,
2013-09-20 09:01:00,60.9,60.0,29.59,WNW,288,0.0,0.0,97,0.00,,---,0.00,VWS V14.01,2013-09-20 14:01:00,
2013-09-20 09:06:00,60.8,60.0,29.59,West,267,0.0,4.0,97,0.01,,---,0.01,VWS V14.01,2013-09-20 14:06:00,
2013-09-20 09:11:00,60.9,60.0,29.59,NW,316,0.0,4.0,97,0.01,,---,0.01,VWS V14.01,2013-09-20 14:11:00,
2013-09-20 09:16:00,61.0,60.2,29.58,West,259,0.0,4.0,97,0.01,,---,0.01,VWS V14.01,2013-09-20 14:16:00,
2013-09-20 09:21:00,61.0,60.2,29.58,WSW,256,2.0,4.0,97,0.01,,---,0.01,VWS V14.01,2013-09-20 14:21:00,
2013-09-20 09:26:00,61.0,59.9,29.58,West,269,2.0,4.0,96,0.01,,---,0.01,VWS V14.01,2013-09-20 14:26:00,
2013-09-20 09:30:00,61.0,60.2,29.59,West,270,1.0,4.0,97,0.01,,---,0.01,VWS V14.01,2013-09-20 14:30:00,
2013-09-20 09:31:00,61.0,59.9,29.59,WNW,292,2.0,2.0,96,0.01,,---,0.01,VWS V14.01,2013-09-20 14:31:00,
2013-09-20 09:36:00,60.9,59.8,29.59,WSW,244,2.0,5.0,96,0.01,,---,0.01,VWS V14.01,2013-09-20 14:36:00,
2013-09-20 09:41:00,60.7,59.6,29.59,West,269,2.0,5.0,96,0.01,,---,0.01,VWS V14.01,2013-09-20 14:41:00,
2013-09-20 09:46:00,60.6,59.5,29.60,West,264,1.0,6.0,96,0.01,,---,0.01,VWS V14.01,2013-09-20 14:46:00,
2013-09-20 09:51:00,60.6,59.5,29.60,WNW,302,3.0,6.0,96,0.01,,---,0.01,VWS V14.01,2013-09-20 14:51:00,
2013-09-20 09:56:00,60.5,59.4,29.60,West,268,3.0,6.0,96,0.01,,---,0.01,VWS V14.01,2013-09-20 14:56:00,
2013-09-20 10:00:00,60.4,59.3,29.61,West,270,2.0,6.0,96,0.01,,---,0.01,VWS V14.01,2013-09-20 15:00:00,
2013-09-20 10:01:00,60.4,59.3,29.61,WNW,300,5.0,9.0,96,0.01,,---,0.01,VWS V14.01,2013-09-20 15:01:00,
2013-09-20 10:06:00,60.5,59.4,29.61,WNW,283,2.0,9.0,96,0.01,,---,0.01,VWS V14.01,2013-09-20 15:06:00,
2013-09-20 10:12:00,60.7,59.3,29.61,WSW,258,1.0,9.0,95,0.01,,---,0.01,VWS V14.01,2013-09-20 15:12:00,
2013-09-20 10:17:00,60.9,59.5,29.61,West,279,6.0,9.0,95,0.01,,---,0.01,VWS V14.01,2013-09-20 15:17:00,
2013-09-20 10:22:00,61.2,59.5,29.61,WNW,283,3.0,9.0,94,0.01,,---,0.01,VWS V14.01,2013-09-20 15:22:00,
2013-09-20 10:27:00,61.6,59.9,29.61,SW,230,4.0,9.0,94,0.01,,---,0.01,VWS V14.01,2013-09-20 15:27:00,
2013-09-20 10:30:00,61.7,59.0,29.62,West,270,2.0,9.0,91,0.01,,---,0.01,VWS V14.01,2013-09-20 15:30:00,
2013-09-20 10:32:00,61.8,59.5,29.62,WNW,284,4.0,5.0,92,0.00,,---,0.01,VWS V14.01,2013-09-20 15:32:00,
2013-09-20 10:37:00,62.0,59.0,29.62,West,281,2.0,7.0,90,0.00,,---,0.01,VWS V14.01,2013-09-20 15:37:00,
2013-09-20 10:42:00,62.2,58.9,29.62,West,274,2.0,8.0,89,0.00,,---,0.01,VWS V14.01,2013-09-20 15:42:00,
2013-09-20 10:47:00,62.4,58.8,29.62,West,264,3.0,11.0,88,0.00,,---,0.01,VWS V14.01,2013-09-20 15:47:00,
2013-09-20 10:52:00,63.1,59.5,29.62,West,276,2.0,11.0,88,0.00,,---,0.01,VWS V14.01,2013-09-20 15:52:00,
2013-09-20 10:57:00,63.4,59.8,29.62,West,273,0.0,11.0,88,0.00,,---,0.01,VWS V14.01,2013-09-20 15:57:00,
2013-09-20 11:02:00,63.4,59.2,29.62,WNW,293,3.0,5.0,86,0.00,,---,0.01,VWS V14.01,2013-09-20 16:02:00,
2013-09-20 11:07:00,63.3,58.7,29.62,WNW,285,0.0,6.0,85,0.00,,---,0.01,VWS V14.01,2013-09-20 16:07:00,
2013-09-20 11:12:00,63.8,59.2,29.62,West,269,2.0,6.0,85,0.00,,---,0.01,VWS V14.01,2013-09-20 16:12:00,
2013-09-20 11:17:00,64.5,59.9,29.61,West,259,2.0,6.0,85,0.00,,---,0.01,VWS V14.01,2013-09-20 16:17:00,
2013-09-20 11:22:00,65.2,60.2,29.61,WNW,286,1.0,6.0,84,0.00,,---,0.01,VWS V14.01,2013-09-20 16:22:00,
2013-09-20 11:27:00,65.2,59.2,29.61,SW,236,3.0,6.0,81,0.00,,---,0.01,VWS V14.01,2013-09-20 16:27:00,
2013-09-20 11:30:00,65.2,59.2,29.61,West,270,2.0,6.0,81,0.00,,---,0.01,VWS V14.01,2013-09-20 16:30:00,
2013-09-20 11:32:00,65.3,59.3,29.61,West,268,1.0,6.0,81,0.00,,---,0.01,VWS V14.01,2013-09-20 16:32:00,
2013-09-20 11:37:00,65.6,60.0,29.61,West,261,0.0,7.0,82,0.00,,---,0.01,VWS V14.01,2013-09-20 16:37:00,
2013-09-20 11:43:00,65.6,59.3,29.61,West,279,3.0,8.0,80,0.00,,---,0.01,VWS V14.01,2013-09-20 16:43:00,
2013-09-20 11:48:00,64.9,58.9,29.61,NW,307,1.0,8.0,81,0.00,,---,0.01,VWS V14.01,2013-09-20 16:48:00,
2013-09-20 11:53:00,64.0,58.1,29.61,West,260,2.0,8.0,81,0.00,,---,0.01,VWS V14.01,2013-09-20 16:53:00,
2013-09-20 11:58:00,64.0,58.7,29.61,West,261,0.0,8.0,83,0.00,,---,0.01,VWS V14.01,2013-09-20 16:58:00,
2013-09-20 12:03:00,64.5,58.2,29.61,West,261,3.0,8.0,80,0.00,,---,0.01,VWS V14.01,2013-09-20 17:03:00,
2013-09-20 12:08:00,64.5,58.2,29.61,WNW,292,2.0,9.0,80,0.00,,---,0.01,VWS V14.01,2013-09-20 17:08:00,
2013-09-20 12:13:00,65.2,58.9,29.61,WNW,296,4.0,9.0,80,0.00,,---,0.01,VWS V14.01,2013-09-20 17:13:00,
2013-09-20 12:18:00,66.0,58.6,29.60,WSW,248,2.0,9.0,77,0.00,,---,0.01,VWS V14.01,2013-09-20 17:18:00,
2013-09-20 12:23:00,65.5,57.7,29.60,WNW,283,2.0,9.0,76,0.00,,---,0.01,VWS V14.01,2013-09-20 17:23:00,
2013-09-20 12:28:00,64.9,57.5,29.60,WSW,253,1.0,9.0,77,0.00,,---,0.01,VWS V14.01,2013-09-20 17:28:00,
2013-09-20 12:30:00,64.9,57.9,29.60,West,270,3.0,9.0,78,0.00,,---,0.01,VWS V14.01,2013-09-20 17:30:00,
2013-09-20 12:33:00,65.3,58.6,29.60,WNW,288,4.0,4.0,79,0.00,,---,0.01,VWS V14.01,2013-09-20 17:33:00,
2013-09-20 12:38:00,65.9,57.4,29.60,WSW,258,5.0,6.0,74,0.00,,---,0.01,VWS V14.01,2013-09-20 17:38:00,
2013-09-20 12:43:00,65.5,57.0,29.60,SW,226,2.0,9.0,74,0.00,,---,0.01,VWS V14.01,2013-09-20 17:43:00,
2013-09-20 12:48:00,65.6,57.5,29.60,WSW,253,1.0,9.0,75,0.00,,---,0.01,VWS V14.01,2013-09-20 17:48:00,
2013-09-20 12:53:00,65.8,58.0,29.60,West,279,3.0,9.0,76,0.00,,---,0.01,VWS V14.01,2013-09-20 17:53:00,
2013-09-20 12:58:00,66.3,57.4,29.60,West,264,3.0,9.0,73,0.00,,---,0.01,VWS V14.01,2013-09-20 17:58:00,
2013-09-20 13:00:00,66.5,57.2,29.59,West,270,3.0,9.0,72,0.00,,---,0.01,VWS V14.01,2013-09-20 18:00:00,
2013-09-20 13:03:00,66.6,56.9,29.59,WSW,248,1.0,5.0,71,0.00,,---,0.01,VWS V14.01,2013-09-20 18:03:00,
2013-09-20 13:08:00,66.9,57.2,29.59,West,262,4.0,5.0,71,0.00,,---,0.01,VWS V14.01,2013-09-20 18:08:00,
2013-09-20 13:14:00,67.0,57.3,29.59,West,267,1.0,8.0,71,0.00,,---,0.01,VWS V14.01,2013-09-20 18:14:00,
2013-09-20 13:19:00,67.6,57.1,29.59,WNW,287,5.0,9.0,69,0.00,,---,0.01,VWS V14.01,2013-09-20 18:19:00,
2013-09-20 13:24:00,67.1,57.8,29.59,WNW,285,2.0,9.0,72,0.00,,---,0.01,VWS V14.01,2013-09-20 18:24:00,
2013-09-20 13:29:00,67.7,57.6,29.59,West,277,3.0,9.0,70,0.00,,---,0.01,VWS V14.01,2013-09-20 18:29:00,
2013-09-20 13:30:00,67.7,57.6,29.58,West,270,3.0,10.0,70,0.00,,---,0.01,VWS V14.01,2013-09-20 18:30:00,
2013-09-20 13:34:00,68.2,58.0,29.58,West,261,2.0,3.0,70,0.00,,---,0.01,VWS V14.01,2013-09-20 18:34:00,
2013-09-20 13:39:00,68.5,57.9,29.58,West,270,2.0,6.0,69,0.00,,---,0.01,VWS V14.01,2013-09-20 18:39:00,
2013-09-20 13:44:00,68.9,57.5,29.58,West,269,3.0,9.0,67,0.00,,---,0.01,VWS V14.01,2013-09-20 18:44:00,
2013-09-20 13:49:00,68.2,56.4,29.58,WSW,241,2.0,9.0,66,0.00,,---,0.01,VWS V14.01,2013-09-20 18:49:00,
2013-09-20 13:54:00,68.0,57.1,29.58,WSW,252,3.0,9.0,68,0.00,,---,0.01,VWS V14.01,2013-09-20 18:54:00,
2013-09-20 13:59:00,67.0,57.3,29.58,West,280,3.0,9.0,71,0.00,,---,0.01,VWS V14.01,2013-09-20 18:59:00,
2013-09-20 14:00:00,66.9,56.8,29.58,West,270,3.0,9.0,70,0.00,,---,0.01,VWS V14.01,2013-09-20 19:00:00,
2013-09-20 14:04:00,66.1,56.8,29.58,WNW,286,3.0,9.0,72,0.00,,---,0.01,VWS V14.01,2013-09-20 19:04:00,
2013-09-20 14:09:00,65.6,57.5,29.58,West,269,2.0,9.0,75,0.00,,---,0.01,VWS V14.01,2013-09-20 19:09:00,
2013-09-20 14:14:00,66.4,57.9,29.58,WNW,284,1.0,9.0,74,0.00,,---,0.01,VWS V14.01,2013-09-20 19:14:00,
2013-09-20 14:19:00,66.2,56.9,29.58,WNW,283,3.0,9.0,72,0.00,,---,0.01,VWS V14.01,2013-09-20 19:19:00,
2013-09-20 14:24:00,66.6,56.9,29.58,WSW,249,3.0,9.0,71,0.00,,---,0.01,VWS V14.01,2013-09-20 19:24:00,
2013-09-20 14:30:00,66.6,56.5,29.59,WSW,256,3.0,9.0,70,0.00,,---,0.01,VWS V14.01,2013-09-20 19:30:00,
2013-09-20 14:35:00,65.7,56.4,29.59,SW,232,4.0,9.0,72,0.00,,---,0.01,VWS V14.01,2013-09-20 19:35:00,
2013-09-20 14:40:00,64.0,57.7,29.59,WNW,302,5.0,13.0,80,0.01,,---,0.02,VWS V14.01,2013-09-20 19:40:00,
2013-09-20 14:45:00,61.6,57.0,29.59,West,264,2.0,13.0,85,0.02,,---,0.03,VWS V14.01,2013-09-20 19:45:00,
2013-09-20 14:50:00,60.5,56.9,29.59,WNW,294,5.0,13.0,88,0.02,,---,0.03,VWS V14.01,2013-09-20 19:50:00,
2013-09-20 14:55:00,59.8,56.6,29.59,WNW,290,4.0,13.0,89,0.02,,---,0.03,VWS V14.01,2013-09-20 19:55:00,
2013-09-20 15:00:00,59.6,57.0,29.60,WNW,290,3.0,13.0,91,0.02,,---,0.03,VWS V14.01,2013-09-20 20:00:00,
2013-09-20 15:05:00,59.6,57.0,29.60,WSW,257,2.0,6.0,91,0.02,,---,0.03,VWS V14.01,2013-09-20 20:05:00,
2013-09-20 15:10:00,60.4,57.8,29.60,WNW,283,6.0,6.0,91,0.02,,---,0.03,VWS V14.01,2013-09-20 20:10:00,
2013-09-20 15:15:00,61.3,58.0,29.60,West,275,4.0,8.0,89,0.02,,---,0.03,VWS V14.01,2013-09-20 20:15:00,
2013-09-20 15:20:00,61.6,57.4,29.60,West,261,2.0,8.0,86,0.02,,---,0.03,VWS V14.01,2013-09-20 20:20:00,
2013-09-20 15:25:00,61.8,58.2,29.60,West,260,1.0,8.0,88,0.02,,---,0.03,VWS V14.01,2013-09-20 20:25:00,
2013-09-20 15:30:00,61.4,57.5,29.60,SW,236,1.0,4.0,87,0.02,,---,0.03,VWS V14.01,2013-09-20 20:30:00,
2013-09-20 15:35:00,61.3,57.7,29.60,SW,235,3.0,6.0,88,0.02,,---,0.03,VWS V14.01,2013-09-20 20:35:00,
2013-09-20 15:40:00,61.5,57.3,29.60,SW,232,2.0,9.0,86,0.02,,---,0.03,VWS V14.01,2013-09-20 20:40:00,
2013-09-20 15:45:00,60.6,56.4,29.61,West,277,1.0,9.0,86,0.02,,---,0.03,VWS V14.01,2013-09-20 20:45:00,
2013-09-20 15:50:00,59.7,56.2,29.61,WSW,256,5.0,10.0,88,0.02,,---,0.03,VWS V14.01,2013-09-20 20:50:00,
2013-09-20 15:55:00,59.0,56.1,29.61,West,265,2.0,10.0,90,0.02,,---,0.03,VWS V14.01,2013-09-20 20:55:00,
2013-09-20 16:00:00,58.5,56.2,29.62,WSW,249,1.0,2.0,92,0.01,,---,0.04,VWS V14.01,2013-09-20 21:00:00,
2013-09-20 16:06:00,58.2,56.2,29.62,WNW,286,3.0,7.0,93,0.01,,---,0.04,VWS V14.01,2013-09-20 21:06:00,
2013-09-20 16:11:00,58.2,56.5,29.62,WSW,258,1.0,7.0,94,0.01,,---,0.04,VWS V14.01,2013-09-20 21:11:00,
2013-09-20 16:16:00,58.4,56.7,29.62,West,280,2.0,7.0,94,0.01,,---,0.04,VWS V14.01,2013-09-20 21:16:00,
2013-09-20 16:21:00,58.5,56.8,29.62,West,260,8.0,8.0,94,0.01,,---,0.04,VWS V14.01,2013-09-20 21:21:00,
2013-09-20 16:26:00,58.4,56.1,29.62,SW,227,1.0,8.0,92,0.01,,---,0.04,VWS V14.01,2013-09-20 21:26:00,
2013-09-20 16:31:00,58.2,55.0,29.62,WNW,291,2.0,6.0,89,0.01,,---,0.04,VWS V14.01,2013-09-20 21:31:00,
2013-09-20 16:36:00,58.2,55.3,29.62,West,276,1.0,6.0,90,0.01,,---,0.04,VWS V14.01,2013-09-20 21:36:00,
2013-09-20 16:41:00,58.3,54.5,29.62,WSW,237,1.0,7.0,87,0.01,,---,0.04,VWS V14.01,2013-09-20 21:41:00,
2013-09-20 16:46:00,58.7,54.5,29.63,WNW,293,2.0,7.0,86,0.01,,---,0.04,VWS V14.01,2013-09-20 21:46:00,
2013-09-20 16:51:00,58.9,55.4,29.63,WNW,290,1.0,7.0,88,0.01,,---,0.04,VWS V14.01,2013-09-20 21:51:00,
2013-09-20 16:56:00,59.0,55.1,29.63,West,273,1.0,7.0,87,0.01,,---,0.04,VWS V14.01,2013-09-20 21:56:00,
2013-09-20 17:00:00,58.9,55.0,29.63,West,270,2.0,7.0,87,0.01,,---,0.04,VWS V14.01,2013-09-20 22:00:00,
2013-09-20 17:01:00,58.8,55.0,29.63,West,280,3.0,4.0,87,0.00,,---,0.04,VWS V14.01,2013-09-20 22:01:00,
2013-09-20 17:06:00,58.8,54.6,29.63,WSW,245,2.0,6.0,86,0.00,,---,0.04,VWS V14.01,2013-09-20 22:06:00,
2013-09-20 17:11:00,59.1,54.6,29.63,WNW,284,3.0,6.0,85,0.00,,---,0.04,VWS V14.01,2013-09-20 22:11:00,
2013-09-20 17:16:00,58.9,54.7,29.63,WSW,252,1.0,6.0,86,0.00,,---,0.04,VWS V14.01,2013-09-20 22:16:00,
2013-09-20 17:21:00,58.8,54.6,29.63,West,261,1.0,6.0,86,0.00,,---,0.04,VWS V14.01,2013-09-20 22:21:00,
2013-09-20 17:26:00,58.9,54.7,29.63,West,261,1.0,7.0,86,0.00,,---,0.04,VWS V14.01,2013-09-20 22:26:00,
2013-09-20 17:30:00,59.0,54.5,29.64,West,270,2.0,7.0,85,0.00,,---,0.04,VWS V14.01,2013-09-20 22:30:00,
2013-09-20 17:31:00,59.0,54.5,29.64,West,272,4.0,6.0,85,0.00,,---,0.04,VWS V14.01,2013-09-20 22:31:00,
2013-09-20 17:36:00,58.8,54.0,29.64,WNW,294,0.0,6.0,84,0.00,,---,0.04,VWS V14.01,2013-09-20 22:36:00,
2013-09-20 17:41:00,58.5,53.7,29.64,WNW,285,2.0,6.0,84,0.00,,---,0.04,VWS V14.01,2013-09-20 22:41:00,
2013-09-20 17:46:00,58.4,53.6,29.64,WNW,298,2.0,6.0,84,0.00,,---,0.04,VWS V14.01,2013-09-20 22:46:00,
2013-09-20 17:51:00,58.4,53.3,29.64,WSW,246,2.0,6.0,83,0.00,,---,0.04,VWS V14.01,2013-09-20 22:51:00,
2013-09-20 17:57:00,58.3,52.8,29.64,West,265,4.0,9.0,82,0.00,,---,0.04,VWS V14.01,2013-09-20 22:57:00,
2013-09-20 18:02:00,57.7,52.2,29.65,West,263,1.0,4.0,82,0.00,,---,0.04,VWS V14.01,2013-09-20 23:02:00,
2013-09-20 18:07:00,57.2,52.1,29.65,WNW,288,3.0,4.0,83,0.00,,---,0.04,VWS V14.01,2013-09-20 23:07:00,
2013-09-20 18:12:00,56.9,51.8,29.65,West,269,2.0,5.0,83,0.00,,---,0.04,VWS V14.01,2013-09-20 23:12:00,
2013-09-20 18:17:00,56.7,52.2,29.65,West,267,0.0,5.0,85,0.00,,---,0.04,VWS V14.01,2013-09-20 23:17:00,
2013-09-20 18:22:00,56.6,52.2,29.65,West,266,0.0,5.0,85,0.00,,---,0.04,VWS V14.01,2013-09-20 23:22:00,
2013-09-20 18:27:00,56.5,52.4,29.65,West,279,1.0,5.0,86,0.00,,---,0.04,VWS V14.01,2013-09-20 23:27:00,
2013-09-20 18:32:00,56.4,52.0,29.65,West,280,1.0,5.0,85,0.00,,---,0.04,VWS V14.01,2013-09-20 23:32:00,
2013-09-20 18:37:00,56.3,51.9,29.65,West,268,0.0,5.0,85,0.00,,---,0.04,VWS V14.01,2013-09-20 23:37:00,
2013-09-20 18:42:00,56.1,52.0,29.65,West,263,1.0,5.0,86,0.00,,---,0.04,VWS V14.01,2013-09-20 23:42:00,
2013-09-20 18:47:00,55.9,51.8,29.65,West,275,2.0,5.0,86,0.00,,---,0.04,VWS V14.01,2013-09-20 23:47:00,
2013-09-20 18:52:00,55.8,51.7,29.65,West,279,0.0,5.0,86,0.00,,---,0.04,VWS V14.01,2013-09-20 23:52:00,
2013-09-20 18:57:00,55.7,51.6,29.65,WSW,250,0.0,5.0,86,0.00,,---,0.04,VWS V14.01,2013-09-20 23:57:00,
2013-09-20 19:00:00,55.7,51.6,29.66,West,270,1.0,5.0,86,0.00,,---,0.04,VWS V14.01,2013-09-21 00:00:00,
2013-09-20 19:02:00,55.7,51.9,29.66,West,274,0.0,0.0,87,0.00,,---,0.04,VWS V14.01,2013-09-21 00:02:00,
2013-09-20 19:07:00,55.5,52.0,29.66,West,263,0.0,0.0,88,0.00,,---,0.04,VWS V14.01,2013-09-21 00:07:00,
2013-09-20 19:12:00,55.3,51.8,29.66,WNW,285,0.0,0.0,88,0.00,,---,0.04,VWS V14.01,2013-09-21 00:12:00,
2013-09-20 19:18:00,55.2,51.7,29.66,West,267,0.0,0.0,88,0.00,,---,0.04,VWS V14.01,2013-09-21 00:18:00,
2013-09-20 19:23:00,55.1,51.6,29.66,West,273,1.0,1.0,88,0.00,,---,0.04,VWS V14.01,2013-09-21 00:23:00,
2013-09-20 19:28:00,55.1,51.6,29.66,West,272,0.0,3.0,88,0.00,,---,0.04,VWS V14.01,2013-09-21 00:28:00,
2013-09-20 19:33:00,54.9,51.4,29.67,West,280,0.0,0.0,88,0.00,,---,0.04,VWS V14.01,2013-09-21 00:33:00,
2013-09-20 19:38:00,54.7,50.9,29.67,WNW,283,4.0,5.0,87,0.00,,---,0.04,VWS V14.01,2013-09-21 00:38:00,
2013-09-20 19:43:00,54.6,51.1,29.67,WSW,252,0.0,5.0,88,0.00,,---,0.04,VWS V14.01,2013-09-21 00:43:00,
2013-09-20 19:48:00,54.5,51.0,29.67,West,278,0.0,5.0,88,0.00,,---,0.04,VWS V14.01,2013-09-21 00:48:00,
2013-09-20 19:53:00,54.3,50.8,29.67,West,268,1.0,5.0,88,0.00,,---,0.04,VWS V14.01,2013-09-21 00:53:00,
2013-09-20 19:58:00,54.3,50.8,29.67,West,278,0.0,5.0,88,0.00,,---,0.04,VWS V14.01,2013-09-21 00:58:00,
2013-09-20 20:00:00,54.2,50.7,29.68,West,270,0.0,5.0,88,0.00,,---,0.04,VWS V14.01,2013-09-21 01:00:00,
2013-09-20 20:03:00,54.2,50.7,29.68,West,272,0.0,0.0,88,0.00,,---,0.04,VWS V14.01,2013-09-21 01:03:00,
2013-09-20 20:08:00,54.3,50.5,29.68,West,265,1.0,5.0,87,0.00,,---,0.04,VWS V14.01,2013-09-21 01:08:00,
2013-09-20 20:13:00,54.3,50.5,29.68,West,271,0.0,5.0,87,0.00,,---,0.04,VWS V14.01,2013-09-21 01:13:00,
2013-09-20 20:18:00,54.3,50.8,29.68,West,271,0.0,5.0,88,0.00,,---,0.04,VWS V14.01,2013-09-21 01:18:00,
2013-09-20 20:23:00,54.2,50.7,29.68,West,277,1.0,5.0,88,0.00,,---,0.04,VWS V14.01,2013-09-21 01:23:00,
2013-09-20 20:28:00,54.2,50.7,29.68,WNW,290,1.0,5.0,88,0.00,,---,0.04,VWS V14.01,2013-09-21 01:28:00,
2013-09-20 20:30:00,54.2,50.7,29.69,West,270,1.0,5.0,88,0.00,,---,0.04,VWS V14.01,2013-09-21 01:30:00,
2013-09-20 20:33:00,54.2,50.7,29.69,WSW,258,0.0,4.0,88,0.00,,---,0.04,VWS V14.01,2013-09-21 01:33:00,
2013-09-20 20:38:00,54.2,50.7,29.69,West,277,0.0,4.0,88,0.00,,---,0.04,VWS V14.01,2013-09-21 01:38:00,
2013-09-20 20:43:00,54.1,50.6,29.69,WSW,257,1.0,4.0,88,0.00,,---,0.04,VWS V14.01,2013-09-21 01:43:00,
2013-09-20 20:48:00,54.0,50.5,29.68,West,277,1.0,4.0,88,0.00,,---,0.04,VWS V14.01,2013-09-21 01:48:00,
2013-09-20 20:54:00,53.9,50.1,29.68,WSW,253,0.0,4.0,87,0.00,,---,0.04,VWS V14.01,2013-09-21 01:54:00,
2013-09-20 20:59:00,53.8,50.0,29.68,West,278,2.0,4.0,87,0.00,,---,0.04,VWS V14.01,2013-09-21 01:59:00,
2013-09-20 21:00:00,53.8,50.0,29.69,West,270,1.0,4.0,87,0.00,,---,0.04,VWS V14.01,2013-09-21 02:00:00,
2013-09-20 21:04:00,53.7,49.9,29.69,West,277,0.0,3.0,87,0.00,,---,0.04,VWS V14.01,2013-09-21 02:04:00,
2013-09-20 21:09:00,53.6,49.8,29.69,West,266,0.0,3.0,87,0.00,,---,0.04,VWS V14.01,2013-09-21 02:09:00,
2013-09-20 21:14:00,53.6,49.8,29.70,West,275,0.0,3.0,87,0.00,,---,0.04,VWS V14.01,2013-09-21 02:14:00,
2013-09-20 21:19:00,53.4,49.3,29.70,West,269,2.0,4.0,86,0.00,,---,0.04,VWS V14.01,2013-09-21 02:19:00,
2013-09-20 21:24:00,53.3,49.5,29.70,West,269,1.0,4.0,87,0.00,,---,0.04,VWS V14.01,2013-09-21 02:24:00,
2013-09-20 21:29:00,53.1,49.3,29.70,West,275,2.0,4.0,87,0.00,,---,0.04,VWS V14.01,2013-09-21 02:29:00,
2013-09-20 21:30:00,53.0,49.2,29.70,West,270,1.0,4.0,87,0.00,,---,0.04,VWS V14.01,2013-09-21 02:30:00,
2013-09-20 21:35:00,52.8,49.0,29.70,West,260,2.0,5.0,87,0.00,,---,0.04,VWS V14.01,2013-09-21 02:35:00,
2013-09-20 21:40:00,52.6,49.2,29.70,WNW,283,2.0,5.0,88,0.00,,---,0.04,VWS V14.01,2013-09-21 02:40:00,
2013-09-20 21:45:00,52.4,49.0,29.70,WSW,252,1.0,5.0,88,0.00,,---,0.04,VWS V14.01,2013-09-21 02:45:00,
2013-09-20 21:50:00,52.1,48.7,29.70,West,264,1.0,5.0,88,0.00,,---,0.04,VWS V14.01,2013-09-21 02:50:00,
2013-09-20 21:55:00,51.9,48.5,29.70,West,264,4.0,5.0,88,0.00,,---,0.04,VWS V14.01,2013-09-21 02:55:00,
2013-09-20 22:00:00,51.7,48.3,29.70,West,271,3.0,5.0,88,0.00,,---,0.04,VWS V14.01,2013-09-21 03:00:00,
2013-09-20 22:05:00,51.5,48.1,29.70,West,275,3.0,4.0,88,0.00,,---,0.04,VWS V14.01,2013-09-21 03:05:00,
2013-09-20 22:10:00,51.4,48.0,29.70,WNW,295,3.0,4.0,88,0.00,,---,0.04,VWS V14.01,2013-09-21 03:10:00,
2013-09-20 22:15:00,51.3,47.9,29.70,West,275,1.0,6.0,88,0.00,,---,0.04,VWS V14.01,2013-09-21 03:15:00,
2013-09-20 22:20:00,51.2,47.8,29.70,West,280,1.0,6.0,88,0.00,,---,0.04,VWS V14.01,2013-09-21 03:20:00,
2013-09-20 22:25:00,51.0,47.9,29.70,West,270,1.0,6.0,89,0.00,,---,0.04,VWS V14.01,2013-09-21 03:25:00,
2013-09-20 22:30:00,50.8,47.7,29.70,West,259,1.0,6.0,89,0.00,,---,0.04,VWS V14.01,2013-09-21 03:30:00,
2013-09-20 22:35:00,50.6,47.5,29.70,WNW,283,1.0,3.0,89,0.00,,---,0.04,VWS V14.01,2013-09-21 03:35:00,
2013-09-20 22:40:00,50.5,47.7,29.70,West,269,1.0,3.0,90,0.00,,---,0.04,VWS V14.01,2013-09-21 03:40:00,
2013-09-20 22:45:00,50.4,47.6,29.70,West,269,1.0,5.0,90,0.00,,---,0.04,VWS V14.01,2013-09-21 03:45:00,
2013-09-20 22:50:00,50.2,47.4,29.70,West,261,1.0,5.0,90,0.00,,---,0.04,VWS V14.01,2013-09-21 03:50:00,
2013-09-20 22:55:00,50.0,47.5,29.70,West,266,0.0,5.0,91,0.00,,---,0.04,VWS V14.01,2013-09-21 03:55:00,
2013-09-20 23:00:00,49.8,47.3,29.70,West,277,1.0,1.0,91,0.00,,---,0.04,VWS V14.01,2013-09-21 04:00:00,
2013-09-20 23:01:00,49.9,47.4,29.70,West,269,1.0,1.0,91,0.00,,---,0.04,VWS V14.01,2013-09-21 04:01:00,
2013-09-20 23:02:00,49.8,47.3,29.70,West,279,0.0,2.0,91,0.00,,---,0.04,VWS V14.01,2013-09-21 04:02:00,
2013-09-20 23:04:00,49.8,47.3,29.70,West,280,1.0,3.0,91,0.00,,---,0.04,VWS V14.01,2013-09-21 04:04:00,
2013-09-20 23:09:00,49.7,47.2,29.70,WNW,284,1.0,3.0,91,0.00,,---,0.04,VWS V14.01,2013-09-21 04:09:00,
2013-09-20 23:14:00,49.5,47.0,29.70,West,264,1.0,3.0,91,0.00,,---,0.04,VWS V14.01,2013-09-21 04:14:00,
2013-09-20 23:19:00,49.3,47.1,29.71,West,270,1.0,3.0,92,0.00,,---,0.04,VWS V14.01,2013-09-21 04:19:00,
2013-09-20 23:24:00,49.1,46.9,29.71,WSW,256,1.0,3.0,92,0.00,,---,0.04,VWS V14.01,2013-09-21 04:24:00,
2013-09-20 23:29:00,49.1,46.9,29.71,WNW,284,3.0,4.0,92,0.00,,---,0.04,VWS V14.01,2013-09-21 04:29:00,
2013-09-20 23:34:00,49.1,46.9,29.70,WNW,283,2.0,4.0,92,0.00,,---,0.04,VWS V14.01,2013-09-21 04:34:00,
2013-09-20 23:39:00,49.0,46.8,29.70,West,265,2.0,4.0,92,0.00,,---,0.04,VWS V14.01,2013-09-21 04:39:00,
2013-09-20 23:44:00,49.0,46.8,29.71,West,264,1.0,4.0,92,0.00,,---,0.04,VWS V14.01,2013-09-21 04:44:00,
2013-09-20 23:49:00,49.0,46.5,29.71,West,272,1.0,4.0,91,0.00,,---,0.04,VWS V14.01,2013-09-21 04:49:00,
2013-09-20 23:54:00,49.1,46.6,29.71,West,267,1.0,4.0,91,0.00,,---,0.04,VWS V14.01,2013-09-21 04:54:00,
2013-09-20 23:59:00,49.1,46.6,29.71,West,261,1.0,4.0,91,0.00,,---,0.04,VWS V14.01,2013-09-21 04:59:00,